Flag for Germany Weather past 2 weeks in Herzogenrath, North Rhine-Westphalia, Germany

Now
60 °F

Sunny.


Feels Like: 60 °F
Forecast: 47 / 68 °F
Wind: 8 mph from Northeast

Location: Maastricht Airport Zuid Limburg


UV Index: 3 (Moderate)

Visibility: 19 mi


Pressure: 29.90 "Hg

Humidity: 53%

Dew point: 43 °F

Location of HerzogenrathLocation

Historic Weather in Herzogenrath

°F

Herzogenrath temperature yesterday

Maximum temperature yesterday: 54 °F (at 4:00 PM)
Minimum temperature yesterday: 42 °F (at 7:00 AM)
Average temperature yesterday: 48 °F

Past Weeks' High & Low Weather Summary

 TemperatureHumidityPressure
High71 °F (Apr 7, 3:00 PM)100% (Apr 12, 5:00 AM)30.46 "Hg (Apr 12, 5:00 AM)
Low31 °F (Apr 16, 7:00 AM)31% (Apr 17, 6:00 PM)29.77 "Hg (Apr 7, 9:00 PM)
Average51 °F70%30.12 "Hg
* Reported Apr 4 7:00 PM — Apr 19 7:00 PM, Herzogenrath, Weather by CustomWeather, © 2014

Note: Actual official high and low records may vary slightly from our data, if they occured in-between our weather recording intervals... More about our weather records

Advertising

Historic Weather Conditions — Data for Previous 24 hours

 ConditionsComfort  
Time TempWeatherWind HumidityBarometerVisibility
7:00 PM
Apr 19
60 °FSunny.8 mph53%29.90 "Hg19 mi
6:00 PM60 °FSunny.9 mph50%29.92 "Hg19 mi
5:00 PM60 °FSunny.9 mph49%29.94 "Hg19 mi
4:00 PM60 °FSunny.8 mph47%29.96 "Hg22 mi
3:00 PM58 °FSunny.7 mph51%29.99 "Hg22 mi
2:00 PM57 °FPassing clouds.7 mph47%30.01 "Hg17 mi
1:00 PM54 °FOvercast.7 mph58%30.03 "Hg19 mi
12:00 PM53 °FOvercast.8 mph61%30.05 "Hg17 mi
11:00 AM48 °FPassing clouds.3 mph76%30.07 "Hg8 mi
10:00 AM44 °FFog.3 mph86%30.07 "Hg5 mi
9:00 AM43 °FFog.3 mph89%30.06 "Hg3 mi
8:00 AM42 °FFog.2 mph92%30.04 "Hg4 mi
7:00 AM41 °FFog.3 mph93%30.04 "Hg4 mi
6:00 AM40 °FFog.2 mph93%30.03 "Hg6 mi
5:00 AM38 °FLow clouds.1 mph97%30.01 "Hg6 mi
4:00 AM39 °FOvercast.2 mph92%30.01 "Hg6 mi
3:00 AM42 °FOvercast.3 mph88%30.02 "Hg8 mi
2:00 AM42 °FOvercast.3 mph86%30.03 "Hg9 mi
1:00 AM40 °FClear.2 mph85%30.03 "Hg7 mi
12:00 AM40 °FClear.1 mph82%30.04 "Hg11 mi
11:00 PM
Apr 18
43 °FClear.3 mph75%30.03 "Hg12 mi
10:00 PM45 °FClear.5 mph70%30.02 "Hg14 mi
9:00 PM48 °FPassing clouds.6 mph63%30.01 "Hg18 mi
8:00 PM51 °FOvercast.6 mph51%30.00 "Hg22 mi
Weather by CustomWeather, © 2014

See weather overview